Regional Weather Roundup
Issued by NWS

Home | Current Version | Previous Version | Graphics & Text | Print | Product List | Glossary On
Versions: 1 2 3 4 5 6 7 8 9 10 11 12 13 14 15 16 17 18 19 20 21 22 23 24 25 26 27 28 29 30 31 32 33 34 35 36 37 38 39 40 41 42 43 44 45 46 47 48 49 50
000
ASUS43 KOAX 030510
RWRNE

WEATHER ROUNDUP FOR NEBRASKA
NATIONAL WEATHER SERVICE OMAHA NE
1200 AM CDT TUE MAY 03 2016

NOTES: SATELLITE DATA IS BEING USED TO AUGMENT CLOUD COVER ABOVE
       12000 FEET.
       "FAIR" INDICATES FEW OR NO CLOUDS BELOW 12,000 FEET WITH NO
       SIGNIFICANT WEATHER AND/OR OBSTRUCTIONS TO VISIBILITY.

  * THESE STATIONS DO NOT REPORT WEATHER SUCH AS RAIN...SNOW OR FOG.

NEZ001>004-019>022-054>056-030600-
NEBRASKA PANHANDLE

CITY           SKY/WX    TMP DP  RH WIND       PRES   REMARKS
SCOTTSBLUFF    LGT RAIN  48  39  71 N12       30.08R
ALLIANCE       MOCLDY    41  38  89 W7        30.06F
CHADRON        CLOUDY    46  42  86 W8        30.05R
KIMBALL        CLEAR     44  33  64 NW9       30.10R
SIDNEY         MOCLDY    45  35  68 NW12      30.06R
$$

NEZ057>060-069>072-079>082-030600-
SOUTHWEST NEBRASKA

CITY           SKY/WX    TMP DP  RH WIND       PRES   REMARKS
NORTH PLATTE   LGT RAIN  47  41  80 SW5       30.05R
IMPERIAL       CLOUDY    50  37  61 SW7       30.01F
LEXINGTON      CLOUDY    48  40  74 SE6       30.04S
MCCOOK         PTCLDY    44  37  76 SW5       30.02F
OGALLALA       LGT RAIN  48  41  75 N18G24    30.08R
$$

NEZ005>010-023>029-035>040-094-030600-
NORTH CENTRAL NEBRASKA

CITY           SKY/WX    TMP DP  RH WIND       PRES   REMARKS
VALENTINE      LGT RAIN  46  43  89 S5        30.06S
AINSWORTH      DRIZZLE   47  45  91 NW7       30.07R
BROKEN BOW     PTCLDY    41  38  89 CALM      30.03S
O`NEILL        CLOUDY    51  46  84 CALM      30.04S
ORD            CLOUDY    42  39  89 CALM      30.03S
THEDFORD       LGT RAIN  46  45  94 N5        30.07S
$$

NEZ041-046>049-061>064-073>077-083>087-030600-
SOUTH CENTRAL NEBRASKA

CITY           SKY/WX    TMP DP  RH WIND       PRES   REMARKS
GRAND ISLAND   CLOUDY    49  40  71 S5        30.05S
AURORA         CLEAR     49  40  69 S3        30.05S
HASTINGS       CLEAR     48  38  68 S3        30.04F
HEBRON         MOCLDY    46  41  82 CALM      30.05S
HOLDREGE       MOCLDY    47  40  78 SE5       30.04S
KEARNEY *      MOCLDY    46  39  76 S5        30.05S
YORK           CLEAR     50  39  66 S3        30.06S
$$

NEZ011>018-030>034-042>045-030600-
NORTHEAST NEBRASKA

CITY           SKY/WX    TMP DP  RH WIND       PRES   REMARKS
NORFOLK        CLEAR     47  39  74 S8        30.04R
ALBION         CLOUDY    46  40  81 CALM      30.05R
BLAIR          CLEAR     54  39  57 CALM      30.05S
COLUMBUS *     PTCLDY    45  34  65 CALM      30.06S
FREMONT        CLOUDY    50  44  78 CALM      30.05S
TEKAMAH        MOCLDY    50  46  86 CALM      30.04S
WAYNE          CLEAR     42  39  89 CALM      30.05S
$$

NEZ050>053-065>068-078-088>093-030600-
SOUTHEAST NEBRASKA

CITY           SKY/WX    TMP DP  RH WIND       PRES   REMARKS
LINCOLN        CLOUDY    51  42  71 CALM      30.06S
OMAHA EPPLEY   PTCLDY    47  42  83 CALM      30.05S
BEATRICE       PTCLDY    48  42  79 CALM      30.06R
FALLS CITY     CLEAR     50  43  77 SW5       30.05S
NEBRASKA CITY  CLEAR     49  41  74 SW5       30.05S
PLATTSMOUTH    CLEAR     49  41  74 CALM      30.05S
$$

NEZ044-045-051>053-067-030600-
OMAHA AREA

CITY           SKY/WX    TMP DP  RH WIND       PRES   REMARKS
OMAHA EPPLEY   PTCLDY    47  42  83 CALM      30.05S
BLAIR          CLEAR     54  39  57 CALM      30.05S
FREMONT        CLOUDY    50  44  78 CALM      30.05S
MILLARD        PTCLDY    47  42  83 CALM      30.05S
OFFUTT AFB     PTCLDY    47  46  99 NW2       30.04S
PLATTSMOUTH    CLEAR     49  41  74 CALM      30.05S
WAHOO          FAIR      51  44  77 CALM      30.05S
$$




USA.gov is the U.S. government's official web portal to all federal, state and local government web resources and services.